STARLINK-1673 (46327 NORAD) Tracking and Keplerian Element Data

This shows tracking and keplerian element data for the satellite.

Feedback or suggestion? Click here.




ElementValue
Catalog46327
NameSTARLINK-1673
Epoch Orbit177
Epoch Day267.58334491
Epoch Year2020
RAAN331.0752
Inclination52.9996
Eccentricity0.000114
Argument of Perigee50.2937
Mean Anonmoly189.3168
Mean Motion15.62721995
Decay Rate0.00058089
L11 46327U 20062C 20267.58334491 .00058089 00000-0 63646-3 0 9994
L22 46327 52.9996 331.0752 0001140 50.2937 189.3168 15.62721995 1775

Live tracking and technical data element details for STARLINK-1673 (NORAD 46327). STARLINK-1673 can be tracked NOW for your location showing map with azimuth and elevation plus other details from your city location.

Track the satellite on the map from your city or location and see movement details for azimuth, elevation, latitude, longitude, range, height, and movement on the map or in text.







IsCatalogInMostPopularTable: catalog: 46327, numindb: 2
Update: records affected: 1



GetName: 46327 STARLINK-1673

Hit Count: updated at: Thu, 24 Sep 2020 18:23:08 GMT